Regional Weather Roundup
Issued by NWS Goodland, KS

Home | Current Version | Previous Version | Graphics & Text | Print | Product List | Glossary On
Versions: 1 2 3 4 5 6 7 8 9 10 11 12 13 14 15 16 17 18 19 20 21 22 23 24 25 26 27 28 29 30 31 32 33 34 35 36 37 38 39 40 41 42 43 44 45 46 47 48 49 50
000
ASUS43 KGLD 172159
RWRGLD

GOODLAND FORECAST AREA HOURLY WEATHER ROUNDUP
NATIONAL WEATHER SERVICE GOODLAND KS
300 PM MST SUN DEC 17 2017

...OFFICIAL OBSERVATIONS...

CITY           SKY/WX    TMP DP  RH WIND       PRES   REMARKS
GOODLAND KS    SUNNY     40  25  55 NW5       29.94F
HILL CITY KS   CLOUDY    42  31  64 N9        29.98F
IMPERIAL NEB   MOSUNNY   40  29  64 S7        29.93F
MCCOOK NEB     CLOUDY    41  31  67 CALM      29.96F
AKRON CO       CLOUDY    36  25  64 SW3       29.90F
BURLINGTON CO  CLOUDY    37  26  64 CALM      29.94F
LIMON CO       CLOUDY    37  23  56 VRB7      29.90F
$$

...UNOFFICIAL OBSERVATIONS...

CITY           SKY/WX    TMP DP  RH WIND       PRES   REMARKS
LENORA KS        N/A     40  32  73 NW5         N/A
NORTON KS      MOSUNNY   39  27  60 NW3       29.97
SHARON SPRINGS   N/A     39  28  65 NW5         N/A
TRENTON NEB      N/A     39  32  76 CALM        N/A
KIT CARSON CO    N/A     39  26  61 MISG        N/A
YUMA CO        FAIR      36  27  69 SW7       29.92S
$$



USA.gov is the U.S. government's official web portal to all federal, state and local government web resources and services.